Year,Month,Day,Hour,Minute,Value (Times are PST for temperature in C)
2014,09,16,00,00,12.20
2014,09,16,00,01,12.20
2014,09,16,00,02,12.10
2014,09,16,00,03,12.10
2014,09,16,00,04,12.10
2014,09,16,00,05,12.10
2014,09,16,00,06,12.00
2014,09,16,00,07,12.00
2014,09,16,00,08,12.00
2014,09,16,00,09,11.90
2014,09,16,00,10,11.90
2014,09,16,00,11,11.90
2014,09,16,00,12,11.80
2014,09,16,00,13,11.80
2014,09,16,00,14,11.80
2014,09,16,00,15,11.80
2014,09,16,00,16,11.80
2014,09,16,00,17,11.80
2014,09,16,00,18,11.70
2014,09,16,00,19,11.70
2014,09,16,00,20,11.70
2014,09,16,00,21,11.70
2014,09,16,00,22,11.70
2014,09,16,00,23,11.60
2014,09,16,00,24,11.60
2014,09,16,00,25,11.60
2014,09,16,00,26,11.60
2014,09,16,00,27,11.60
2014,09,16,00,28,11.50
2014,09,16,00,29,11.50
2014,09,16,00,30,11.50
2014,09,16,00,31,11.40
2014,09,16,00,32,11.40
2014,09,16,00,33,11.40
2014,09,16,00,34,11.40
2014,09,16,00,35,11.40
2014,09,16,00,36,11.30
2014,09,16,00,37,11.30
2014,09,16,00,38,11.30
2014,09,16,00,39,11.30
2014,09,16,00,40,11.30
2014,09,16,00,41,11.30
2014,09,16,00,42,11.30
2014,09,16,00,43,11.20
2014,09,16,00,44,11.20
2014,09,16,00,45,11.20
2014,09,16,00,46,11.20
2014,09,16,00,47,11.20
2014,09,16,00,48,11.20
2014,09,16,00,49,11.20
2014,09,16,00,50,11.20
2014,09,16,00,51,11.10
2014,09,16,00,52,11.10
2014,09,16,00,53,11.10
2014,09,16,00,54,11.10
2014,09,16,00,55,11.10
2014,09,16,00,56,11.10
2014,09,16,00,57,11.00
2014,09,16,00,58,11.00
2014,09,16,00,59,11.00
2014,09,16,01,00,11.00
2014,09,16,01,01,10.90
2014,09,16,01,02,10.90
2014,09,16,01,03,10.90
2014,09,16,01,04,10.80
2014,09,16,01,05,10.80
2014,09,16,01,06,10.80
2014,09,16,01,07,10.80
2014,09,16,01,08,10.70
2014,09,16,01,09,10.70
2014,09,16,01,10,10.70
2014,09,16,01,11,10.70
2014,09,16,01,12,10.70
2014,09,16,01,13,10.70
2014,09,16,01,14,10.60
2014,09,16,01,15,10.60
2014,09,16,01,16,10.60
2014,09,16,01,17,10.60
2014,09,16,01,18,10.60
2014,09,16,01,19,10.60
2014,09,16,01,20,10.60
2014,09,16,01,21,10.50
2014,09,16,01,22,10.50
2014,09,16,01,23,10.50
2014,09,16,01,24,10.50
2014,09,16,01,25,10.50
2014,09,16,01,26,10.40
2014,09,16,01,27,10.40
2014,09,16,01,28,10.40
2014,09,16,01,29,10.40
2014,09,16,01,30,10.40
2014,09,16,01,31,10.40
2014,09,16,01,32,10.40
2014,09,16,01,33,10.40
2014,09,16,01,34,10.30
2014,09,16,01,35,10.30
2014,09,16,01,36,10.30
2014,09,16,01,37,10.30
2014,09,16,01,38,10.30
2014,09,16,01,39,10.20
2014,09,16,01,40,10.20
2014,09,16,01,41,10.20
2014,09,16,01,42,10.20
2014,09,16,01,43,10.20
2014,09,16,01,44,10.20
2014,09,16,01,45,10.20
2014,09,16,01,46,10.20
2014,09,16,01,47,10.20
2014,09,16,01,48,10.20
2014,09,16,01,49,10.20
2014,09,16,01,50,10.20
2014,09,16,01,51,10.10
2014,09,16,01,52,10.10
2014,09,16,01,53,10.10
2014,09,16,01,54,10.10
2014,09,16,01,55,10.10
2014,09,16,01,56,10.00
2014,09,16,01,57,10.00
2014,09,16,01,58,10.00
2014,09,16,01,59,10.00
2014,09,16,02,00,10.00
2014,09,16,02,01,10.00
2014,09,16,02,02,10.00
2014,09,16,02,03,10.00
2014,09,16,02,04,9.90
2014,09,16,02,05,9.90
2014,09,16,02,06,9.90
2014,09,16,02,07,9.90
2014,09,16,02,08,9.90
2014,09,16,02,09,9.80
2014,09,16,02,10,9.80
2014,09,16,02,11,9.80
2014,09,16,02,12,9.80
2014,09,16,02,13,9.80
2014,09,16,02,14,9.70
2014,09,16,02,15,9.70
2014,09,16,02,16,9.70
2014,09,16,02,17,9.70
2014,09,16,02,18,9.70
2014,09,16,02,19,9.70
2014,09,16,02,20,9.70
2014,09,16,02,21,9.60
2014,09,16,02,22,9.60
2014,09,16,02,23,9.60
2014,09,16,02,24,9.60
2014,09,16,02,25,9.60
2014,09,16,02,26,9.60
2014,09,16,02,27,9.60
2014,09,16,02,28,9.60
2014,09,16,02,29,9.50
2014,09,16,02,30,9.50
2014,09,16,02,31,9.50
2014,09,16,02,32,9.50
2014,09,16,02,33,9.50
2014,09,16,02,34,9.40
2014,09,16,02,35,9.40
2014,09,16,02,36,9.40
2014,09,16,02,37,9.40
2014,09,16,02,38,9.40
2014,09,16,02,39,9.40
2014,09,16,02,40,9.40
2014,09,16,02,41,9.40
2014,09,16,02,42,9.40
2014,09,16,02,43,9.30
2014,09,16,02,44,9.30
2014,09,16,02,45,9.30
2014,09,16,02,46,9.30
2014,09,16,02,47,9.30
2014,09,16,02,48,9.30
2014,09,16,02,49,9.30
2014,09,16,02,50,9.30
2014,09,16,02,51,9.20
2014,09,16,02,52,9.20
2014,09,16,02,53,9.20
2014,09,16,02,54,9.20
2014,09,16,02,55,9.20
2014,09,16,02,56,9.20
2014,09,16,02,57,9.20
2014,09,16,02,58,9.20
2014,09,16,02,59,9.20
2014,09,16,03,00,9.10
2014,09,16,03,01,9.10
2014,09,16,03,02,9.10
2014,09,16,03,03,9.10
2014,09,16,03,04,9.10
2014,09,16,03,05,9.00
2014,09,16,03,06,9.00
2014,09,16,03,07,9.00
2014,09,16,03,08,9.00
2014,09,16,03,09,9.00
2014,09,16,03,10,9.00
2014,09,16,03,11,8.90
2014,09,16,03,12,8.90
2014,09,16,03,13,8.90
2014,09,16,03,14,8.90
2014,09,16,03,15,8.90
2014,09,16,03,16,8.90
2014,09,16,03,17,8.90
2014,09,16,03,18,8.90
2014,09,16,03,19,8.80
2014,09,16,03,20,8.80
2014,09,16,03,21,8.80
2014,09,16,03,22,8.70
2014,09,16,03,23,8.70
2014,09,16,03,24,8.70
2014,09,16,03,25,8.70
2014,09,16,03,26,8.70
2014,09,16,03,27,8.70
2014,09,16,03,28,8.70
2014,09,16,03,29,8.70
2014,09,16,03,30,8.70
2014,09,16,03,31,8.60
2014,09,16,03,32,8.60
2014,09,16,03,33,8.60
2014,09,16,03,34,8.60
2014,09,16,03,35,8.60
2014,09,16,03,36,8.60
2014,09,16,03,37,8.60
2014,09,16,03,38,8.60
2014,09,16,03,39,8.60
2014,09,16,03,40,8.50
2014,09,16,03,41,8.50
2014,09,16,03,42,8.50
2014,09,16,03,43,8.50
2014,09,16,03,44,8.50
2014,09,16,03,45,8.40
2014,09,16,03,46,8.40
2014,09,16,03,47,8.40
2014,09,16,03,48,8.40
2014,09,16,03,49,8.40
2014,09,16,03,50,8.40
2014,09,16,03,51,8.40
2014,09,16,03,52,8.40
2014,09,16,03,53,8.40
2014,09,16,03,54,8.40
2014,09,16,03,55,8.40
2014,09,16,03,56,8.40
2014,09,16,03,57,8.40
2014,09,16,03,58,8.40
2014,09,16,03,59,8.30
2014,09,16,04,00,8.30
2014,09,16,04,01,8.30
2014,09,16,04,02,8.30
2014,09,16,04,03,8.30
2014,09,16,04,04,8.30
2014,09,16,04,05,8.30
2014,09,16,04,06,8.30
2014,09,16,04,07,8.30
2014,09,16,04,08,8.30
2014,09,16,04,09,8.30
2014,09,16,04,10,8.30
2014,09,16,04,11,8.30
2014,09,16,04,12,8.20
2014,09,16,04,13,8.20
2014,09,16,04,14,8.20
2014,09,16,04,15,8.20
2014,09,16,04,16,8.20
2014,09,16,04,17,8.20
2014,09,16,04,18,8.20
2014,09,16,04,19,8.20
2014,09,16,04,20,8.20
2014,09,16,04,21,8.20
2014,09,16,04,22,8.20
2014,09,16,04,23,8.20
2014,09,16,04,24,8.10
2014,09,16,04,25,8.10
2014,09,16,04,26,8.10
2014,09,16,04,27,8.10
2014,09,16,04,28,8.10
2014,09,16,04,29,8.10
2014,09,16,04,30,8.10
2014,09,16,04,31,8.00
2014,09,16,04,32,8.00
2014,09,16,04,33,8.00
2014,09,16,04,34,8.00
2014,09,16,04,35,8.00
2014,09,16,04,36,8.00
2014,09,16,04,37,8.00
2014,09,16,04,38,7.90
2014,09,16,04,39,7.90
2014,09,16,04,40,7.90
2014,09,16,04,41,7.90
2014,09,16,04,42,7.90
2014,09,16,04,43,7.90
2014,09,16,04,44,7.90
2014,09,16,04,45,7.90
2014,09,16,04,46,7.90
2014,09,16,04,47,7.90
2014,09,16,04,48,7.90
2014,09,16,04,49,7.80
2014,09,16,04,50,7.80
2014,09,16,04,51,7.80
2014,09,16,04,52,7.80
2014,09,16,04,53,7.80
2014,09,16,04,54,7.80
2014,09,16,04,55,7.80
2014,09,16,04,56,7.80
2014,09,16,04,57,7.80
2014,09,16,04,58,7.80
2014,09,16,04,59,7.70
2014,09,16,05,00,7.70
2014,09,16,05,01,7.70
2014,09,16,05,02,7.70
2014,09,16,05,03,7.70
2014,09,16,05,04,7.70
2014,09,16,05,05,7.70
2014,09,16,05,06,7.70
2014,09,16,05,07,7.70
2014,09,16,05,08,7.70
2014,09,16,05,09,7.70
2014,09,16,05,10,7.70
2014,09,16,05,11,7.60
2014,09,16,05,12,7.60
2014,09,16,05,13,7.60
2014,09,16,05,14,7.60
2014,09,16,05,15,7.60
2014,09,16,05,16,7.60
2014,09,16,05,17,7.60
2014,09,16,05,18,7.60
2014,09,16,05,19,7.60
2014,09,16,05,20,7.50
2014,09,16,05,21,7.50
2014,09,16,05,22,7.50
2014,09,16,05,23,7.50
2014,09,16,05,24,7.50
2014,09,16,05,25,7.50
2014,09,16,05,26,7.50
2014,09,16,05,27,7.50
2014,09,16,05,28,7.50
2014,09,16,05,29,7.50
2014,09,16,05,30,7.50
2014,09,16,05,31,7.50
2014,09,16,05,32,7.50
2014,09,16,05,33,7.40
2014,09,16,05,34,7.40
2014,09,16,05,35,7.40
2014,09,16,05,36,7.40
2014,09,16,05,37,7.40
2014,09,16,05,38,7.40
2014,09,16,05,39,7.40
2014,09,16,05,40,7.40
2014,09,16,05,41,7.40
2014,09,16,05,42,7.40
2014,09,16,05,43,7.40
2014,09,16,05,44,7.30
2014,09,16,05,45,7.30
2014,09,16,05,46,7.30
2014,09,16,05,47,7.30
2014,09,16,05,48,7.30
2014,09,16,05,49,7.30
2014,09,16,05,50,7.30
2014,09,16,05,51,7.30
2014,09,16,05,52,7.30
2014,09,16,05,53,7.30
2014,09,16,05,54,7.20
2014,09,16,05,55,7.20
2014,09,16,05,56,7.20
2014,09,16,05,57,7.20
2014,09,16,05,58,7.20
2014,09,16,05,59,7.20
2014,09,16,06,00,7.20
2014,09,16,06,01,7.20
2014,09,16,06,02,7.20
2014,09,16,06,03,7.20
2014,09,16,06,04,7.20
2014,09,16,06,05,7.20
2014,09,16,06,06,7.20
2014,09,16,06,07,7.10
2014,09,16,06,08,7.10
2014,09,16,06,09,7.10
2014,09,16,06,10,7.10
2014,09,16,06,11,7.10
2014,09,16,06,12,7.10
2014,09,16,06,13,7.10
2014,09,16,06,14,7.10
2014,09,16,06,15,7.10
2014,09,16,06,16,7.10
2014,09,16,06,17,7.00
2014,09,16,06,18,7.00
2014,09,16,06,19,7.00
2014,09,16,06,20,7.00
2014,09,16,06,21,7.00
2014,09,16,06,22,7.00
2014,09,16,06,23,7.00
2014,09,16,06,24,7.00
2014,09,16,06,25,7.00
2014,09,16,06,26,6.90
2014,09,16,06,27,6.90
2014,09,16,06,28,6.90
2014,09,16,06,29,6.90
2014,09,16,06,30,6.90
2014,09,16,06,31,6.90
2014,09,16,06,32,6.90
2014,09,16,06,33,6.90
2014,09,16,06,34,6.90
2014,09,16,06,35,6.90
2014,09,16,06,36,6.90
2014,09,16,06,37,6.90
2014,09,16,06,38,6.90
2014,09,16,06,39,6.90
2014,09,16,06,40,6.80
2014,09,16,06,41,6.80
2014,09,16,06,42,6.80
2014,09,16,06,43,6.80
2014,09,16,06,44,6.80
2014,09,16,06,45,6.80
2014,09,16,06,46,6.80
2014,09,16,06,47,6.80
2014,09,16,06,48,6.80
2014,09,16,06,49,6.80
2014,09,16,06,50,6.80
2014,09,16,06,51,6.80
2014,09,16,06,52,6.80
2014,09,16,06,53,6.70
2014,09,16,06,54,6.70
2014,09,16,06,55,6.70
2014,09,16,06,56,6.70
2014,09,16,06,57,6.70
2014,09,16,06,58,6.70
2014,09,16,06,59,6.70
2014,09,16,07,00,6.70
2014,09,16,07,01,6.70
2014,09,16,07,02,6.70
2014,09,16,07,03,6.80
2014,09,16,07,04,6.80
2014,09,16,07,05,6.80
2014,09,16,07,06,6.80
2014,09,16,07,07,6.80
2014,09,16,07,08,6.70
2014,09,16,07,09,6.70
2014,09,16,07,10,6.70
2014,09,16,07,11,6.70
2014,09,16,07,12,6.70
2014,09,16,07,13,6.70
2014,09,16,07,14,6.70
2014,09,16,07,15,6.70
2014,09,16,07,16,6.70
2014,09,16,07,17,6.70
2014,09,16,07,18,6.60
2014,09,16,07,19,6.60
2014,09,16,07,20,6.60
2014,09,16,07,21,6.60
2014,09,16,07,22,6.60
2014,09,16,07,23,6.60
2014,09,16,07,24,6.60
2014,09,16,07,25,6.60
2014,09,16,07,26,6.60
2014,09,16,07,27,6.60
2014,09,16,07,28,6.60
2014,09,16,07,29,6.60
2014,09,16,07,30,6.60
2014,09,16,07,31,6.60
2014,09,16,07,32,6.60
2014,09,16,07,33,6.60
2014,09,16,07,34,6.60
2014,09,16,07,35,6.60
2014,09,16,07,36,6.60
2014,09,16,07,37,6.60
2014,09,16,07,38,6.60
2014,09,16,07,39,6.60
2014,09,16,07,40,6.60
2014,09,16,07,41,6.60
2014,09,16,07,42,6.70
2014,09,16,07,43,6.70
2014,09,16,07,44,6.70
2014,09,16,07,45,6.70
2014,09,16,07,46,6.70
2014,09,16,07,47,6.70
2014,09,16,07,48,6.70
2014,09,16,07,49,6.70
2014,09,16,07,50,6.70
2014,09,16,07,51,6.70
2014,09,16,07,52,6.70
2014,09,16,07,53,6.70
2014,09,16,07,54,6.70
2014,09,16,07,55,6.70
2014,09,16,07,56,6.70
2014,09,16,07,57,6.70
2014,09,16,07,58,6.70
2014,09,16,07,59,6.70
2014,09,16,08,00,6.70
2014,09,16,08,01,6.70
2014,09,16,08,02,6.70
2014,09,16,08,03,6.80
2014,09,16,08,04,6.80
2014,09,16,08,05,6.80
2014,09,16,08,06,6.80
2014,09,16,08,07,6.80
2014,09,16,08,08,6.80
2014,09,16,08,09,6.80
2014,09,16,08,10,6.80
2014,09,16,08,11,6.80
2014,09,16,08,12,6.80
2014,09,16,08,13,6.80
2014,09,16,08,14,6.80
2014,09,16,08,15,6.80
2014,09,16,08,16,6.80
2014,09,16,08,17,6.80
2014,09,16,08,18,6.80
2014,09,16,08,19,6.90
2014,09,16,08,20,6.90
2014,09,16,08,21,6.90
2014,09,16,08,22,6.90
2014,09,16,08,23,7.00
2014,09,16,08,24,7.00
2014,09,16,08,25,7.10
2014,09,16,08,26,7.20
2014,09,16,08,27,7.20
2014,09,16,08,28,7.30
2014,09,16,08,29,7.40
2014,09,16,08,30,7.50
2014,09,16,08,31,7.60
2014,09,16,08,32,7.70
2014,09,16,08,33,7.70
2014,09,16,08,34,7.80
2014,09,16,08,35,7.90
2014,09,16,08,36,8.00
2014,09,16,08,37,8.20
2014,09,16,08,38,8.30
2014,09,16,08,39,8.40
2014,09,16,08,40,8.50
2014,09,16,08,41,8.60
2014,09,16,08,42,8.70
2014,09,16,08,43,8.80
2014,09,16,08,44,8.80
2014,09,16,08,45,8.90
2014,09,16,08,46,8.90
2014,09,16,08,47,8.90
2014,09,16,08,48,9.00
2014,09,16,08,49,9.00
2014,09,16,08,50,9.10
2014,09,16,08,51,9.20
2014,09,16,08,52,9.20
2014,09,16,08,53,9.30
2014,09,16,08,54,9.30
2014,09,16,08,55,9.50
2014,09,16,08,56,9.50
2014,09,16,08,57,9.60
2014,09,16,08,58,9.70
2014,09,16,08,59,9.70
2014,09,16,09,00,9.70
2014,09,16,09,01,9.70
2014,09,16,09,02,9.80
2014,09,16,09,03,9.80
2014,09,16,09,04,9.80
2014,09,16,09,05,9.80
2014,09,16,09,06,9.80
2014,09,16,09,07,9.90
2014,09,16,09,08,9.90
2014,09,16,09,09,9.90
2014,09,16,09,10,10.00
2014,09,16,09,11,10.00
2014,09,16,09,12,10.10
2014,09,16,09,13,10.20
2014,09,16,09,14,10.20
2014,09,16,09,15,10.30
2014,09,16,09,16,10.40
2014,09,16,09,17,10.40
2014,09,16,09,18,10.50
2014,09,16,09,19,10.60
2014,09,16,09,20,10.70
2014,09,16,09,21,10.90
2014,09,16,09,22,11.00
2014,09,16,09,23,11.20
2014,09,16,09,24,11.30
2014,09,16,09,25,11.40
2014,09,16,09,26,11.50
2014,09,16,09,27,11.60
2014,09,16,09,28,11.70
2014,09,16,09,29,11.80
2014,09,16,09,30,11.90
2014,09,16,09,31,12.00
2014,09,16,09,32,12.10
2014,09,16,09,33,12.10
2014,09,16,09,34,12.20
2014,09,16,09,35,12.20
2014,09,16,09,36,12.20
2014,09,16,09,37,12.20
2014,09,16,09,38,12.20
2014,09,16,09,39,12.20
2014,09,16,09,40,12.30
2014,09,16,09,41,12.30
2014,09,16,09,42,12.30
2014,09,16,09,43,12.40
2014,09,16,09,44,12.50
2014,09,16,09,45,12.50
2014,09,16,09,46,12.60
2014,09,16,09,47,12.60
2014,09,16,09,48,12.70
2014,09,16,09,49,12.70
2014,09,16,09,50,12.80
2014,09,16,09,51,12.90
2014,09,16,09,52,12.90
2014,09,16,09,53,13.00
2014,09,16,09,54,13.10
2014,09,16,09,55,13.10
2014,09,16,09,56,13.20
2014,09,16,09,57,13.20
2014,09,16,09,58,13.30
2014,09,16,09,59,13.30
2014,09,16,10,00,13.40
2014,09,16,10,01,13.40
2014,09,16,10,02,13.40
2014,09,16,10,03,13.50
2014,09,16,10,04,13.50
2014,09,16,10,05,13.60
2014,09,16,10,06,13.60
2014,09,16,10,07,13.70
2014,09,16,10,08,13.70
2014,09,16,10,09,13.80
2014,09,16,10,10,13.80
2014,09,16,10,11,13.90
2014,09,16,10,12,14.00
2014,09,16,10,13,14.00
2014,09,16,10,14,14.10
2014,09,16,10,15,14.20
2014,09,16,10,16,14.20
2014,09,16,10,17,14.30
2014,09,16,10,18,14.30
2014,09,16,10,19,14.40
2014,09,16,10,20,14.50
2014,09,16,10,21,14.60
2014,09,16,10,22,14.70
2014,09,16,10,23,14.70
2014,09,16,10,24,14.80
2014,09,16,10,25,14.90
2014,09,16,10,26,14.90
2014,09,16,10,27,15.00
2014,09,16,10,28,15.10
2014,09,16,10,29,15.10
2014,09,16,10,30,15.20
2014,09,16,10,31,15.30
2014,09,16,10,32,15.40
2014,09,16,10,33,15.50
2014,09,16,10,34,15.70
2014,09,16,10,35,15.80
2014,09,16,10,36,15.90
2014,09,16,10,37,16.00
2014,09,16,10,38,16.10
2014,09,16,10,39,16.30
2014,09,16,10,40,16.40
2014,09,16,10,41,16.50
2014,09,16,10,42,16.60
2014,09,16,10,43,16.70
2014,09,16,10,44,16.90
2014,09,16,10,45,17.00
2014,09,16,10,46,17.10
2014,09,16,10,47,17.20
2014,09,16,10,48,17.30
2014,09,16,10,49,17.30
2014,09,16,10,50,17.40
2014,09,16,10,51,17.50
2014,09,16,10,52,17.60
2014,09,16,10,53,17.70
2014,09,16,10,54,17.80
2014,09,16,10,55,17.90
2014,09,16,10,56,17.90
2014,09,16,10,57,17.90
2014,09,16,10,58,17.90
2014,09,16,10,59,18.00
2014,09,16,11,00,18.00
2014,09,16,11,01,18.10
2014,09,16,11,02,18.10
2014,09,16,11,03,18.10
2014,09,16,11,04,18.10
2014,09,16,11,05,18.10
2014,09,16,11,06,18.10
2014,09,16,11,07,18.20
2014,09,16,11,08,18.30
2014,09,16,11,09,18.40
2014,09,16,11,10,18.40
2014,09,16,11,11,18.50
2014,09,16,11,12,18.60
2014,09,16,11,13,18.70
2014,09,16,11,14,18.80
2014,09,16,11,15,18.80
2014,09,16,11,16,19.00
2014,09,16,11,17,19.10
2014,09,16,11,18,19.20
2014,09,16,11,19,19.30
2014,09,16,11,20,19.40
2014,09,16,11,21,19.60
2014,09,16,11,22,19.70
2014,09,16,11,23,19.70
2014,09,16,11,24,19.80
2014,09,16,11,25,19.80
2014,09,16,11,26,19.90
2014,09,16,11,27,20.00
2014,09,16,11,28,20.10
2014,09,16,11,29,20.20
2014,09,16,11,30,20.30
2014,09,16,11,31,20.30
2014,09,16,11,32,20.30
2014,09,16,11,33,20.40
2014,09,16,11,34,20.40
2014,09,16,11,35,20.40
2014,09,16,11,36,20.30
2014,09,16,11,37,20.30
2014,09,16,11,38,20.30
2014,09,16,11,39,20.30
2014,09,16,11,40,20.30
2014,09,16,11,41,20.40
2014,09,16,11,42,20.40
2014,09,16,11,43,20.50
2014,09,16,11,44,20.50
2014,09,16,11,45,20.50
2014,09,16,11,46,20.60
2014,09,16,11,47,20.60
2014,09,16,11,48,20.60
2014,09,16,11,49,20.70
2014,09,16,11,50,20.70
2014,09,16,11,51,20.80
2014,09,16,11,52,20.90
2014,09,16,11,53,20.90
2014,09,16,11,54,21.00
2014,09,16,11,55,21.00
2014,09,16,11,56,21.10
2014,09,16,11,57,21.10
2014,09,16,11,58,21.20
2014,09,16,11,59,21.30
2014,09,16,12,00,21.40
2014,09,16,12,01,21.40
2014,09,16,12,02,21.40
2014,09,16,12,03,21.50
2014,09,16,12,04,21.50
2014,09,16,12,05,21.60
2014,09,16,12,06,21.60
2014,09,16,12,07,21.70
2014,09,16,12,08,21.80
2014,09,16,12,09,21.80
2014,09,16,12,10,21.80
2014,09,16,12,11,21.90
2014,09,16,12,12,22.00
2014,09,16,12,13,22.00
2014,09,16,12,14,22.10
2014,09,16,12,15,22.10
2014,09,16,12,16,22.10
2014,09,16,12,17,22.10
2014,09,16,12,18,22.10
2014,09,16,12,19,22.20
2014,09,16,12,20,22.30
2014,09,16,12,21,22.30
2014,09,16,12,22,22.30
2014,09,16,12,23,22.30
2014,09,16,12,24,22.40
2014,09,16,12,25,22.40
2014,09,16,12,26,22.40
2014,09,16,12,27,22.40
2014,09,16,12,28,22.50
2014,09,16,12,29,22.60
2014,09,16,12,30,22.70
2014,09,16,12,31,22.70
2014,09,16,12,32,22.80
2014,09,16,12,33,22.80
2014,09,16,12,34,22.80
2014,09,16,12,35,22.80
2014,09,16,12,36,22.90
2014,09,16,12,37,22.90
2014,09,16,12,38,23.00
2014,09,16,12,39,23.00
2014,09,16,12,40,23.00
2014,09,16,12,41,23.10
2014,09,16,12,42,23.20
2014,09,16,12,43,23.20
2014,09,16,12,44,23.30
2014,09,16,12,45,23.30
2014,09,16,12,46,23.30
2014,09,16,12,47,23.40
2014,09,16,12,48,23.40
2014,09,16,12,49,23.40
2014,09,16,12,50,23.50
2014,09,16,12,51,23.50
2014,09,16,12,52,23.60
2014,09,16,12,53,23.60
2014,09,16,12,54,23.60
2014,09,16,12,55,23.70
2014,09,16,12,56,23.70
2014,09,16,12,57,23.70
2014,09,16,12,58,23.70
2014,09,16,12,59,23.70
2014,09,16,13,00,23.70
2014,09,16,13,01,23.70
2014,09,16,13,02,23.80
2014,09,16,13,03,23.80
2014,09,16,13,04,23.80
2014,09,16,13,05,23.80
2014,09,16,13,06,23.90
2014,09,16,13,07,23.90
2014,09,16,13,08,24.00
2014,09,16,13,09,24.00
2014,09,16,13,10,24.10
2014,09,16,13,11,24.10
2014,09,16,13,12,24.10
2014,09,16,13,13,24.10
2014,09,16,13,14,24.10
2014,09,16,13,15,24.20
2014,09,16,13,16,24.20
2014,09,16,13,17,24.10
2014,09,16,13,18,24.10
2014,09,16,13,19,24.10
2014,09,16,13,20,24.10
2014,09,16,13,21,24.10
2014,09,16,13,22,24.10
2014,09,16,13,23,24.10
2014,09,16,13,24,24.20
2014,09,16,13,25,24.20
2014,09,16,13,26,24.20
2014,09,16,13,27,24.30
2014,09,16,13,28,24.40
2014,09,16,13,29,24.40
2014,09,16,13,30,24.30
2014,09,16,13,31,24.40
2014,09,16,13,32,24.40
2014,09,16,13,33,24.50
2014,09,16,13,34,24.50
2014,09,16,13,35,24.60
2014,09,16,13,36,24.60
2014,09,16,13,37,24.60
2014,09,16,13,38,24.70
2014,09,16,13,39,24.70
2014,09,16,13,40,24.70
2014,09,16,13,41,24.80
2014,09,16,13,42,24.80
2014,09,16,13,43,24.80
2014,09,16,13,44,24.90
2014,09,16,13,45,24.90
2014,09,16,13,46,24.80
2014,09,16,13,47,24.80
2014,09,16,13,48,24.80
2014,09,16,13,49,24.80
2014,09,16,13,50,24.80
2014,09,16,13,51,24.70
2014,09,16,13,52,24.80
2014,09,16,13,53,24.80
2014,09,16,13,54,24.80
2014,09,16,13,55,24.80
2014,09,16,13,56,24.80
2014,09,16,13,57,24.80
2014,09,16,13,58,24.80
2014,09,16,13,59,24.90
2014,09,16,14,00,24.90
2014,09,16,14,01,25.00
2014,09,16,14,02,25.00
2014,09,16,14,03,25.10
2014,09,16,14,04,25.10
2014,09,16,14,05,25.20
2014,09,16,14,06,25.20
2014,09,16,14,07,25.20
2014,09,16,14,08,25.20
2014,09,16,14,09,25.30
2014,09,16,14,10,25.30
2014,09,16,14,11,25.30
2014,09,16,14,12,25.40
2014,09,16,14,13,25.50
2014,09,16,14,14,25.50
2014,09,16,14,15,25.60
2014,09,16,14,16,25.60
2014,09,16,14,17,25.60
2014,09,16,14,18,25.60
2014,09,16,14,19,25.60
2014,09,16,14,20,25.60
2014,09,16,14,21,25.60
2014,09,16,14,22,25.70
2014,09,16,14,23,25.70
2014,09,16,14,24,25.70
2014,09,16,14,25,25.70
2014,09,16,14,26,25.70
2014,09,16,14,27,25.70
2014,09,16,14,28,25.70
2014,09,16,14,29,25.70
2014,09,16,14,30,25.70
2014,09,16,14,31,25.70
2014,09,16,14,32,25.70
2014,09,16,14,33,25.70
2014,09,16,14,34,25.70
2014,09,16,14,35,25.70
2014,09,16,14,36,25.70
2014,09,16,14,37,25.70
2014,09,16,14,38,25.70
2014,09,16,14,39,25.70
2014,09,16,14,40,25.70
2014,09,16,14,41,25.60
2014,09,16,14,42,25.60
2014,09,16,14,43,25.60
2014,09,16,14,44,25.60
2014,09,16,14,45,25.70
2014,09,16,14,46,25.70
2014,09,16,14,47,25.70
2014,09,16,14,48,25.70
2014,09,16,14,49,25.70
2014,09,16,14,50,25.70
2014,09,16,14,51,25.70
2014,09,16,14,52,25.70
2014,09,16,14,53,25.70
2014,09,16,14,54,25.70
2014,09,16,14,55,25.70
2014,09,16,14,56,25.60
2014,09,16,14,57,25.50
2014,09,16,14,58,25.40
2014,09,16,14,59,25.30
2014,09,16,15,00,25.20
2014,09,16,15,01,25.20
2014,09,16,15,02,25.10
2014,09,16,15,03,25.10
2014,09,16,15,04,25.10
2014,09,16,15,05,25.00
2014,09,16,15,06,24.90
2014,09,16,15,07,24.90
2014,09,16,15,08,24.80
2014,09,16,15,09,24.80
2014,09,16,15,10,24.80
2014,09,16,15,11,24.80
2014,09,16,15,12,24.80
2014,09,16,15,13,24.80
2014,09,16,15,14,24.80
2014,09,16,15,15,24.70
2014,09,16,15,16,24.70
2014,09,16,15,17,24.70
2014,09,16,15,18,24.80
2014,09,16,15,19,24.80
2014,09,16,15,20,24.80
2014,09,16,15,21,24.90
2014,09,16,15,22,24.90
2014,09,16,15,23,24.90
2014,09,16,15,24,25.00
2014,09,16,15,25,25.00
2014,09,16,15,26,25.00
2014,09,16,15,27,25.00
2014,09,16,15,28,25.00
2014,09,16,15,29,25.00
2014,09,16,15,30,25.00
2014,09,16,15,31,25.00
2014,09,16,15,32,25.00
2014,09,16,15,33,24.90
2014,09,16,15,34,24.90
2014,09,16,15,35,25.00
2014,09,16,15,36,25.00
2014,09,16,15,37,25.00
2014,09,16,15,38,25.10
2014,09,16,15,39,25.10
2014,09,16,15,40,25.10
2014,09,16,15,41,25.10
2014,09,16,15,42,25.10
2014,09,16,15,43,25.00
2014,09,16,15,44,25.00
2014,09,16,15,45,25.00
2014,09,16,15,46,24.90
2014,09,16,15,47,24.90
2014,09,16,15,48,24.90
2014,09,16,15,49,24.90
2014,09,16,15,50,24.90
2014,09,16,15,51,24.80
2014,09,16,15,52,24.80
2014,09,16,15,53,24.80
2014,09,16,15,54,24.70
2014,09,16,15,55,24.70
2014,09,16,15,56,24.70
2014,09,16,15,57,24.70
2014,09,16,15,58,24.70
2014,09,16,15,59,24.70
2014,09,16,16,00,24.70
2014,09,16,16,01,24.80
2014,09,16,16,02,24.80
2014,09,16,16,03,24.90
2014,09,16,16,04,24.90
2014,09,16,16,05,24.90
2014,09,16,16,06,24.80
2014,09,16,16,07,24.80
2014,09,16,16,08,24.80
2014,09,16,16,09,24.80
2014,09,16,16,10,24.80
2014,09,16,16,11,24.80
2014,09,16,16,12,24.80
2014,09,16,16,13,24.80
2014,09,16,16,14,24.70
2014,09,16,16,15,24.70
2014,09,16,16,16,24.70
2014,09,16,16,17,24.70
2014,09,16,16,18,24.60
2014,09,16,16,19,24.60
2014,09,16,16,20,24.60
2014,09,16,16,21,24.60
2014,09,16,16,22,24.60
2014,09,16,16,23,24.60
2014,09,16,16,24,24.60
2014,09,16,16,25,24.60
2014,09,16,16,26,24.50
2014,09,16,16,27,24.40
2014,09,16,16,28,24.40
2014,09,16,16,29,24.30
2014,09,16,16,30,24.30
2014,09,16,16,31,24.30
2014,09,16,16,32,24.30
2014,09,16,16,33,24.30
2014,09,16,16,34,24.30
2014,09,16,16,35,24.30
2014,09,16,16,36,24.30
2014,09,16,16,37,24.30
2014,09,16,16,38,24.20
2014,09,16,16,39,24.20
2014,09,16,16,40,24.10
2014,09,16,16,41,24.10
2014,09,16,16,42,24.20
2014,09,16,16,43,24.20
2014,09,16,16,44,24.20
2014,09,16,16,45,24.20
2014,09,16,16,46,24.20
2014,09,16,16,47,24.10
2014,09,16,16,48,24.00
2014,09,16,16,49,24.00
2014,09,16,16,50,23.90
2014,09,16,16,51,23.90
2014,09,16,16,52,23.90
2014,09,16,16,53,23.80
2014,09,16,16,54,23.80
2014,09,16,16,55,23.70
2014,09,16,16,56,23.70
2014,09,16,16,57,23.70
2014,09,16,16,58,23.60
2014,09,16,16,59,23.60
2014,09,16,17,00,23.60
2014,09,16,17,01,23.60
2014,09,16,17,02,23.60
2014,09,16,17,03,23.60
2014,09,16,17,04,23.50
2014,09,16,17,05,23.50
2014,09,16,17,06,23.40
2014,09,16,17,07,23.40
2014,09,16,17,08,23.40
2014,09,16,17,09,23.30
2014,09,16,17,10,23.30
2014,09,16,17,11,23.30
2014,09,16,17,12,23.30
2014,09,16,17,13,23.30
2014,09,16,17,14,23.30
2014,09,16,17,15,23.20
2014,09,16,17,16,23.20
2014,09,16,17,17,23.20
2014,09,16,17,18,23.20
2014,09,16,17,19,23.20
2014,09,16,17,20,23.20
2014,09,16,17,21,23.10
2014,09,16,17,22,23.10
2014,09,16,17,23,23.00
2014,09,16,17,24,23.00
2014,09,16,17,25,22.90
2014,09,16,17,26,22.90
2014,09,16,17,27,22.80
2014,09,16,17,28,22.80
2014,09,16,17,29,22.80
2014,09,16,17,30,22.70
2014,09,16,17,31,22.70
2014,09,16,17,32,22.60
2014,09,16,17,33,22.60
2014,09,16,17,34,22.60
2014,09,16,17,35,22.60
2014,09,16,17,36,22.50
2014,09,16,17,37,22.50